[[{"header":{"parameterUnit":"m.s-1","parameterCategory":1,"la1":30.2991,"la2":30.254,"lo1":-89.0895,"lo2":-89.0444,"dy":0.0017,"dx":0.0017,"nx":28,"ny":28,"refTime":"2026-02-10T09:00:00:Z","depth":0,"parameterNumber":2,"parameterNumberName":"U-component_of_WINDS"},"data":[0,0,0,0,0,0,0,0,0,0,0,0,0,0,0,0,0,0,0,0,0,0,0,0,0,0,0,0,0,0,0,0,0,0,0,0,0,0,0,0,0,0,0,0,0,0,0,0,0,0,0,0,0,0,0,0,0,0,0.6536,0.6536,0,0.6585,0.6585,0.6586,0.6603,0.6603,0.6603,0.6603,0.6654,0.6655,0.6657,0,0,0,0,0,0,0,0,0,0,0,0,0,0.6459,0.646,0.6536,0.6536,0.6537,0.6585,0.6585,0.6586,0.6603,0.6603,0.6603,0.6602,0.6653,0.6655,0.6657,0,0,0,0,0,0,0,0,0,0,0,0,0,0.6498,0.646,0.6535,0.6551,0.6553,0.6585,0.6585,0.6586,0.6603,0.6603,0.6603,0.6602,0.6653,0.6655,0.6657,0.6677,0,0,0.6664,0.6665,0,0,0,0,0,0,0,0,0.6496,0.6501,0.6548,0.655,0.6552,0.6587,0.6577,0.6617,0.6603,0.6584,0.6603,0.6602,0.6632,0.6636,0.6646,0.6679,0.6682,0.6664,0.6666,0.6667,0.6667,0,0,0,0,0,0,0,0.6493,0.6499,0.6555,0.6549,0.6551,0.6556,0.6562,0.6585,0.6609,0.6586,0.6587,0.6593,0.6633,0.6644,0.6647,0.6682,0.6664,0.6666,0.6668,0.6669,0.6736,0.6737,0,0,0,0,0,0,0.6488,0.6497,0.6554,0.6557,0.6523,0.6558,0.6564,0.6576,0.6609,0.6613,0.6593,0.6593,0.664,0.6644,0.6649,0.6675,0.6667,0.6669,0.667,0.6736,0.6737,0.6737,0,0,0,0,0,0,0.6486,0.6493,0.6552,0.6527,0.6535,0.656,0.6574,0.6578,0.6588,0.6614,0.6619,0.6599,0.664,0.6646,0.667,0.6677,0.667,0.6672,0.6736,0.6736,0.6737,0.6727,0,0,0,0,0,0,0.6484,0.6492,0.6499,0.6527,0.6536,0.6571,0.6574,0.6579,0.6592,0.6593,0.6621,0.6626,0.664,0.6667,0.6672,0.668,0.6674,0.6735,0.6736,0.6737,0.6727,0.6728,0.6728,0,0,0,0,0,0.6481,0.6494,0.6499,0.6506,0.6546,0.6572,0.6577,0.6593,0.6592,0.66,0.6617,0.6625,0.6676,0.6669,0.6676,0.6684,0.6735,0.6736,0.6737,0.6727,0.6727,0.6728,0,0,0,0,0,0,0.6466,0.6498,0.6504,0.6527,0.6546,0.6574,0.6585,0.6593,0.6613,0.6613,0.6632,0.6639,0.6662,0.6676,0.6668,0.6706,0.6706,0.6708,0.6696,0.6697,0.6697,0.6693,0.6676,0,0,0,0,0,0.6466,0.6484,0.6511,0.6528,0.6538,0.656,0.6571,0.6582,0.6603,0.6612,0.6631,0.6651,0.6672,0.6685,0.6706,0.673,0.6736,0.6739,0.6739,0.6739,0.6741,0.6756,0.6758,0.674,0.674,0.674,0,0,0.6465,0.6484,0.6494,0.6526,0.6542,0.6561,0.6566,0.6586,0.66,0.6615,0.6639,0.6654,0.6678,0.6703,0.6714,0.6715,0.6748,0.6741,0.6741,0.6742,0.6757,0.6759,0.676,0.6741,0.6741,0.6741,0,0,0.6472,0.6489,0.6506,0.6522,0.6547,0.6562,0.6566,0.6593,0.6604,0.6628,0.664,0.6658,0.6693,0.6711,0.6724,0.674,0.6748,0.6746,0.6748,0.6763,0.6764,0.6765,0.6772,0.6774,0.6748,0.6748,0.6748,0,0.6468,0.6496,0.6513,0.6533,0.6547,0.6561,0.6579,0.6595,0.6625,0.6635,0.6635,0.668,0.6698,0.6727,0.6731,0.6741,0.6747,0.6743,0.6762,0.6764,0.6765,0.6772,0.6774,0.6748,0.6748,0.6748,0.6748,0,0.649,0.651,0.6521,0.655,0.6565,0.6584,0.6604,0.6618,0.6628,0.6643,0.6669,0.6691,0.6716,0.6724,0.6734,0.6755,0.6755,0.6758,0.6758,0.6766,0.6773,0.6775,0.6747,0.6747,0.6748,0.6748,0,0,0.6489,0.6528,0.6532,0.6546,0.6576,0.6591,0.6611,0.6636,0.6648,0.6669,0.6687,0.6717,0.6721,0.6736,0.6748,0.6761,0.6773,0.6763,0.6764,0.6765,0.6799,0.6796,0.6799,0.6779,0.678,0.678,0.6797,0,0.6501,0.6536,0.6553,0.6581,0.66,0.6615,0.6633,0.6653,0.6668,0.6687,0.6704,0.6725,0.6728,0.6738,0.6751,0.6769,0.6781,0.6768,0.6796,0.6797,0.6789,0.6802,0.6799,0.6814,0.68,0.68,0.6801,0,0.6519,0.654,0.657,0.6599,0.6607,0.6623,0.6648,0.6666,0.669,0.67,0.6718,0.673,0.6752,0.6751,0.6782,0.6773,0.6786,0.6797,0.6798,0.6801,0.6799,0.6806,0.6819,0.6821,0.6805,0.6804,0.6804,0,0.6516,0.6552,0.6575,0.6586,0.662,0.6631,0.6645,0.6669,0.6683,0.6706,0.6716,0.674,0.6754,0.6773,0.6792,0.6789,0.6822,0.6822,0.6832,0.6831,0.6837,0.6837,0.6853,0.6846,0.6845,0.6845,0.6845,0,0.6527,0.6545,0.6574,0.6588,0.6609,0.6629,0.665,0.6665,0.6687,0.6705,0.672,0.6736,0.676,0.678,0.6795,0.682,0.6826,0.6835,0.6839,0.6834,0.6832,0.6842,0.6841,0.6846,0.6846,0.6846,0.6846,0,0.6526,0.6546,0.6573,0.6603,0.6611,0.6625,0.6651,0.6666,0.6682,0.6705,0.6712,0.6737,0.6762,0.6783,0.6815,0.6825,0.6851,0.6855,0.6843,0.6845,0.6853,0.6852,0.6876,0.6881,0.687,0.687,0.687,0,0.6532,0.6546,0.6578,0.6592,0.6606,0.6627,0.6642,0.6663,0.6678,0.6708,0.6719,0.6745,0.6766,0.6805,0.6827,0.6852,0.6858,0.6864,0.6861,0.6856,0.6858,0.6857,0.6859,0.6864,0.6864,0.6864,0.6864,0,0.6541,0.655,0.6571,0.6596,0.6614,0.6635,0.6656,0.6666,0.6691,0.6707,0.6733,0.675,0.6783,0.6809,0.6837,0.6853,0.6863,0.6865,0.6869,0.6864,0.6856,0.6861,0.6843,0.6865,0.6865,0.6865,0.6865,0.6865,0.6544,0.6557,0.6582,0.6606,0.6624,0.6644,0.666,0.6678,0.67,0.6728,0.674,0.6766,0.6791,0.683,0.6846,0.6867,0.6869,0.6874,0.6875,0.6876,0.6875,0.6853,0.6872,0.6872,0.6872,0.6872,0.6872,0,0.6553,0.657,0.6592,0.6621,0.664,0.6648,0.6672,0.6688,0.671,0.6733,0.6754,0.6784,0.681,0.6834,0.6861,0.6873,0.6879,0.688,0.6879,0.6883,0.6872,0.6867,0.6875,0.6875,0.6875,0.6875,0.6875,0.6875,0.656,0.6584,0.6597,0.6631,0.6648,0.6674,0.6687,0.6706,0.6724,0.6757,0.6778,0.6794,0.6818,0.6847,0.6871,0.6877,0.6887,0.6886,0.6894,0.6884,0.6883,0.6883,0.6878,0.6888,0.6888,0.6903,0.6903,0.6903]},{"header":{"parameterUnit":"m.s-1","parameterCategory":1,"la1":30.2991,"la2":30.254,"lo1":-89.0895,"lo2":-89.0444,"dy":0.0017,"dx":0.0017,"nx":28,"ny":28,"refTime":"2026-02-10T09:00:00:Z","depth":0,"parameterNumber":3,"parameterNumberName":"V-component_of_WINDS"},"data":[0,0,0,0,0,0,0,0,0,0,0,0,0,0,0,0,0,0,0,0,0,0,0,0,0,0,0,0,0,0,0,0,0,0,0,0,0,0,0,0,0,0,0,0,0,0,0,0,0,0,0,0,0,0,0,0,0,0,-0.7858,-0.7858,0,-0.7833,-0.7833,-0.7833,-0.7821,-0.7821,-0.7822,-0.7822,-0.7795,-0.7794,-0.7793,0,0,0,0,0,0,0,0,0,0,0,0,0,-0.7895,-0.7894,-0.7858,-0.7858,-0.7858,-0.7833,-0.7833,-0.7833,-0.7821,-0.7821,-0.7822,-0.7822,-0.7795,-0.7794,-0.7793,0,0,0,0,0,0,0,0,0,0,0,0,0,-0.7875,-0.7894,-0.7858,-0.7849,-0.7848,-0.7833,-0.7833,-0.7833,-0.7821,-0.7821,-0.7822,-0.7822,-0.7795,-0.7794,-0.7793,-0.7785,0,0,-0.779,-0.7789,0,0,0,0,0,0,0,0,-0.7877,-0.7874,-0.7851,-0.785,-0.7848,-0.7831,-0.7836,-0.7817,-0.7821,-0.7831,-0.7822,-0.7822,-0.7807,-0.7805,-0.78,-0.7784,-0.7783,-0.779,-0.7789,-0.7789,-0.7788,0,0,0,0,0,0,0,-0.7878,-0.7875,-0.7848,-0.785,-0.7849,-0.7846,-0.7843,-0.7832,-0.7819,-0.7831,-0.783,-0.7827,-0.7806,-0.7801,-0.7799,-0.7783,-0.779,-0.7789,-0.7788,-0.7788,-0.7759,-0.7759,0,0,0,0,0,0,-0.7881,-0.7876,-0.7849,-0.7848,-0.7863,-0.7845,-0.7842,-0.7836,-0.7819,-0.7817,-0.7827,-0.7827,-0.7803,-0.78,-0.7798,-0.7788,-0.7789,-0.7788,-0.7787,-0.7759,-0.7759,-0.7759,0,0,0,0,0,0,-0.7882,-0.7879,-0.785,-0.7862,-0.7858,-0.7845,-0.7838,-0.7836,-0.7831,-0.7816,-0.7814,-0.7824,-0.7803,-0.78,-0.7789,-0.7787,-0.7787,-0.7786,-0.776,-0.7759,-0.7759,-0.7767,0,0,0,0,0,0,-0.7883,-0.7879,-0.7876,-0.7862,-0.7857,-0.7841,-0.7838,-0.7835,-0.7829,-0.7828,-0.7813,-0.7811,-0.7802,-0.779,-0.7788,-0.7785,-0.7785,-0.776,-0.776,-0.7759,-0.7767,-0.7767,-0.7768,0,0,0,0,0,-0.7884,-0.7879,-0.7876,-0.7873,-0.7853,-0.7841,-0.7839,-0.783,-0.7829,-0.7826,-0.7817,-0.7811,-0.7788,-0.7789,-0.7786,-0.7783,-0.776,-0.776,-0.7759,-0.7767,-0.7767,-0.7768,0,0,0,0,0,0,-0.7893,-0.7877,-0.7873,-0.7864,-0.7854,-0.784,-0.7835,-0.783,-0.7821,-0.782,-0.7809,-0.7806,-0.7796,-0.7788,-0.7791,-0.7775,-0.7773,-0.7772,-0.778,-0.778,-0.7781,-0.7782,-0.7784,0,0,0,0,0,-0.7894,-0.7886,-0.7872,-0.7865,-0.786,-0.7849,-0.7843,-0.7837,-0.7826,-0.7822,-0.7812,-0.7802,-0.7792,-0.7786,-0.7776,-0.7766,-0.7763,-0.7763,-0.7763,-0.7763,-0.7763,-0.7757,-0.7757,-0.7759,-0.7759,-0.7759,0,0,-0.7896,-0.7886,-0.7881,-0.7866,-0.7858,-0.785,-0.7845,-0.7836,-0.783,-0.7821,-0.781,-0.7802,-0.779,-0.778,-0.7775,-0.7773,-0.7761,-0.7763,-0.7763,-0.7762,-0.7757,-0.7756,-0.7756,-0.7759,-0.7759,-0.7759,0,0,-0.7894,-0.7886,-0.7879,-0.7871,-0.7859,-0.7851,-0.785,-0.7836,-0.7831,-0.782,-0.7813,-0.7805,-0.7788,-0.778,-0.7773,-0.7769,-0.7764,-0.7766,-0.7767,-0.7762,-0.7762,-0.7762,-0.776,-0.776,-0.7765,-0.7765,-0.7765,0,-0.7898,-0.7885,-0.7876,-0.7868,-0.7861,-0.7853,-0.7845,-0.7838,-0.7823,-0.7819,-0.7818,-0.7797,-0.7788,-0.7775,-0.7774,-0.777,-0.7767,-0.7768,-0.7763,-0.7762,-0.7762,-0.776,-0.776,-0.7766,-0.7766,-0.7766,-0.7766,0,-0.789,-0.7881,-0.7877,-0.7863,-0.7856,-0.7848,-0.7838,-0.7832,-0.7826,-0.7819,-0.7808,-0.7797,-0.7785,-0.7782,-0.7776,-0.7768,-0.7768,-0.7765,-0.7763,-0.7762,-0.7761,-0.776,-0.7766,-0.7766,-0.7766,-0.7766,0,0,-0.7893,-0.7875,-0.7873,-0.7867,-0.7853,-0.7846,-0.7838,-0.7826,-0.7821,-0.7812,-0.7804,-0.7791,-0.7788,-0.778,-0.7774,-0.7769,-0.7766,-0.7767,-0.7766,-0.7767,-0.7757,-0.7759,-0.7759,-0.7763,-0.7763,-0.7763,-0.7758,0,-0.789,-0.7875,-0.7867,-0.7855,-0.7847,-0.7839,-0.7832,-0.7822,-0.7815,-0.7807,-0.7799,-0.7789,-0.7786,-0.7782,-0.7777,-0.7768,-0.7764,-0.7768,-0.7756,-0.7755,-0.7759,-0.7758,-0.776,-0.7757,-0.7757,-0.7757,-0.7757,0,-0.7884,-0.7875,-0.7862,-0.7849,-0.7846,-0.7839,-0.7828,-0.7821,-0.781,-0.7805,-0.7797,-0.779,-0.7781,-0.778,-0.7767,-0.777,-0.7764,-0.7759,-0.7759,-0.7757,-0.7756,-0.7756,-0.7755,-0.7755,-0.7756,-0.7756,-0.7756,0,-0.7887,-0.7872,-0.7862,-0.7857,-0.7842,-0.7838,-0.7831,-0.782,-0.7814,-0.7804,-0.78,-0.7789,-0.7783,-0.7775,-0.7766,-0.7766,-0.7754,-0.7752,-0.7749,-0.7749,-0.7747,-0.7747,-0.7745,-0.7743,-0.7743,-0.7743,-0.7743,0,-0.7884,-0.7877,-0.7864,-0.7858,-0.785,-0.784,-0.7832,-0.7825,-0.7815,-0.7808,-0.78,-0.7793,-0.7782,-0.7773,-0.7766,-0.7756,-0.7754,-0.7749,-0.7747,-0.775,-0.775,-0.7746,-0.7746,-0.7743,-0.7743,-0.7743,-0.7743,0,-0.7887,-0.7878,-0.7867,-0.7854,-0.785,-0.7844,-0.7833,-0.7827,-0.7819,-0.781,-0.7807,-0.7795,-0.7785,-0.7775,-0.7761,-0.7756,-0.7747,-0.7744,-0.7751,-0.7749,-0.7747,-0.7748,-0.7742,-0.7741,-0.7741,-0.7741,-0.7741,0,-0.7886,-0.788,-0.7866,-0.7861,-0.7854,-0.7846,-0.7839,-0.783,-0.7823,-0.781,-0.7806,-0.7795,-0.7786,-0.777,-0.776,-0.7749,-0.7747,-0.7745,-0.7745,-0.7748,-0.7746,-0.7747,-0.7746,-0.7746,-0.7746,-0.7746,-0.7746,0,-0.7884,-0.788,-0.7871,-0.7861,-0.7853,-0.7845,-0.7836,-0.7832,-0.782,-0.7813,-0.7803,-0.7796,-0.7782,-0.7771,-0.776,-0.7753,-0.7747,-0.7746,-0.7745,-0.7747,-0.7751,-0.7749,-0.7751,-0.7746,-0.7746,-0.7746,-0.7746,-0.7746,-0.7884,-0.7879,-0.7868,-0.7859,-0.7851,-0.7843,-0.7837,-0.7829,-0.782,-0.7808,-0.7803,-0.7792,-0.7782,-0.7765,-0.7758,-0.775,-0.7749,-0.7747,-0.7746,-0.7746,-0.7747,-0.7753,-0.7748,-0.7748,-0.7748,-0.7748,-0.7748,0,-0.7883,-0.7875,-0.7867,-0.7855,-0.7847,-0.7843,-0.7833,-0.7827,-0.7818,-0.7808,-0.78,-0.7788,-0.7777,-0.7767,-0.7756,-0.7751,-0.7748,-0.7749,-0.7749,-0.7747,-0.7748,-0.7751,-0.7751,-0.7751,-0.7751,-0.7751,-0.7751,-0.7751,-0.7881,-0.7871,-0.7866,-0.7852,-0.7845,-0.7835,-0.783,-0.7822,-0.7814,-0.7802,-0.7793,-0.7786,-0.7776,-0.7765,-0.7755,-0.7752,-0.7749,-0.7749,-0.7746,-0.7747,-0.7747,-0.7747,-0.7749,-0.7749,-0.7749,-0.7745,-0.7745,-0.7745]}]]